Skip Page Navigation
NASA JPL Caltech
NASA Logo - Jet Propulsion Laboratory + View the NASA Portal
+ Near-Earth Object (NEO) Program
Search JPL
JPL Home Earth Solar System Stars & Galaxies Technology
JPL Solar System Dynamics
BODIES ORBITS EPHEMERIDES TOOLS PHYSICAL DATA DISCOVERY FAQ SITE MAP
JPL Small-Body Database Browser
Search: [ help ]  
17411 (1988 DF3)
Classification: Main-belt Asteroid          SPK-ID: 2017411
Ephemeris | Orbit Diagram | Orbital Elements | Physical Parameters | Discovery Circumstances | Close-Approach Data ]

[ show orbit diagram ]
Orbital Elements at Epoch 2457000.5 (2014-Dec-09.0) TDB
Reference: JPL 11 (heliocentric ecliptic J2000)
 Element Value Uncertainty (1-sigma)   Units 
e .1279342620491742 6.3021e-08  
a 2.243805868550569 1.4628e-08 AU
q 1.956746220575946 1.4252e-07 AU
i 6.584287109829979 6.1919e-06 deg
node 265.9490855557418 5.7959e-05 deg
peri 120.9033004453955 6.3959e-05 deg
M 107.6579004360657 2.4915e-05 deg
tp 2456633.370103959528
(2013-Dec-06.87010396)
8.4959e-05 JED
period 1227.655026145149
3.36
1.2005e-05
3.287e-08
d
yr
n .293241987637524 2.8675e-09 deg/d
Q 2.530865516525193 1.6499e-08 AU
  Orbit Determination Parameters
   # obs. used (total)      872  
   data-arc span      9507 days (26.03 yr)  
   first obs. used      1988-02-22  
   last obs. used      2014-03-04  
   planetary ephem.      DE431  
   SB-pert. ephem.      SB431-BIG16  
   condition code      0  
   fit RMS      .51264  
   data source      ORB  
   producer      Otto Matic  
   solution date      2014-Jun-09 21:50:12  

Additional Information
 Earth MOID = .971141 AU 
 T_jup = 3.613 
[ show covariance matrix ]

Ephemeris | Orbit Diagram | Orbital Elements | Physical Parameters | Discovery Circumstances | Close-Approach Data ]

Physical Parameter Table
Parameter Symbol Value Units Sigma Reference Notes
absolute magnitude H 14.3 mag n/a MPO279698  

17411 (1988 DF3)          Discovered 1988-Feb-22 by McNaught, R. H. at Siding Spring (413)
Reference: 20001013/Numbers.arcLast Updated: 2004-04-19

[ show close-approach data ]
Alternate Designations
 1988 DF3 = 1998 DH4 
Ephemeris | Orbit Diagram | Orbital Elements | Physical Parameters | Discovery Circumstances | Close-Approach Data ]
ABOUT SSD CREDITS/AWARDS PRIVACY/COPYRIGHT GLOSSARY LINKS
FirstGov 2014-Oct-23 08:41 UT
(server date/time)  
NASA Home Page
Site Manager:   Donald K. Yeomans
Webmaster  Alan B. Chamberlin